SCP
0 0 0 0 0 0 0 0 0 0 0 0 0 0 0 0 0 0 0 0 0 0 0 0 0 0 0 0 0 0 0 0 0 0 0 0 0 0 0 0 0 0 0
0 0 0 0 0 0 0 0 0 0 0 0 0 0 0 0 0 0 0 0 0 0 0 0 0 0 0 0 0 0 0 0 0 0 0 0 0 0 0 0 0 0 0
0 0 0 0 0 0 0 0 0 0 0 0 0 0 0 0 0 0 0 0 0 0 0 0 0 0 0 0 0 0 0 0 0 0 0 0 0 0 0 0 0 0 0
0 0 0 0 0 0 0 0 0 0 0 0 0 0 0 0 0 0 0 0 0 0 0 0 0 0 0 0 0 0 0 0 0 0 0 0 0 0 0 0 0 0 0
0 0 0 0 0 0 0 0 0 0 0 0 0 0 0 0 0 0 0 0 0 0 0 0 0 0 0 0 0 0 0 0 0 0 0 0 0 0 0 0 0 0 0
0 0 0 0 0 0 0 0 0 0 0 0 0 0 0 0 0 0 0 0 0 0 0 0 0 0 0 0 0 0 0 0 0 0 0 0 0 0 0 0 0 0 0
0 0 0 0 0 0 0 0 0 0 0 0 0 0 0 0 0 0 0 0 0 0 0 0 0 0 0 0 0 0 0 0 0 0 0 0 0 0 0 0 0 0 0
0 0 0 0 0 0 0 0 0 0 0 0 0 0 0 0 0 0 0 0 0 0 0 0 0 0 0 0 0 0 0 0 0 0 0 0 0 0 0 0 0 0 0
0 0 0 0 0 0 0 0 0 0 0 0 0 0 0 0 0 0 0 0 0 0 0 0 0 0 0 0 0 0 0 0 0 0 0 0 0 0 0 0 0 0 0
0 0 0 0 0 0 0 0 0 0 0 0 0 0 0 0 0 0 0 0 0 0 0 0 0 0 0 0 0 0 0 0 0 0 0 0 0 0 0 0 0 0 0
0 0 0 0 0 0 0 0 0 0 0 0 0 0 0 0 0 0 0 0 0 0 0 0 0 0 0 0 0 0 0 0 0 0 0 0 0 0 0 0 0 0 0
0 0 0 0 0 0 0 0 0 0 0 0 0 0 0 0 0 0 0 0 0 0 0 0 0 0 0 0 0 0 0 0 0 0 0 0 0 0 0 0 0 0 0
0 0 0 0 0 0 0 0 0 0 0 0 0 0 0 0 0 0 0 0 0 0 0 0 0 0 0 0 0 0 0 0 0 0 0 0 0 0 0 0 0 0 0
0 0 0 0 0 0 0 0 0 0 0 0 0 0 0 0 0 0 0 0 0 0 0 0 0 0 0 0 0 0 0 0 0 0 0 0 0 0 0 0 0 0 0
0 0 0 0 0 0 0 0 0 0 0 0 0 0 0 0 0 0 0 0 0 0 0 0 0 0 0 0 0 0 0 0 0 0 0 0 0 0 0 0 0 0 0
0 0 0 0 0 0 0 0 0 0 0 0 0 0 0 0 0 0 0 0 0 0 0 0 0 0 0 0 0 0 0 0 0 0 0 0 0 0 0 0 0 0 0
0 0 0 0 0 0 0 0 0 0 0 0 0 0 0 0 0 0 0 0 0 0 0 0 0 0 0 0 0 0 0 0 0 0 0 0 0 0 0 0 0 0 0
0 0 0 0 0 0 0 0 0 0 0 0 0 0 0 0 0 0 0 0 0 0 0 0 0 0 0 0 0 0 0 0 0 0 0 0 0 0 0 0 0 0 0
0 0 0 0 0 0 0 0 0 0 0 0 0 0 0 0 0 0 0 0 0 0 0 0 0 0 0 0 0 0 0 0 0 0 0 0 0 0 0 0 0 0 0
0 0 0 0 0 0 0 0 0 0 0 0 0 0 0 0 0 0 0 0 0 0 0 0 0 0 0 0 0 0 0 0 0 0 0 0 0 0 0 0 0 0 0
0 0 0 0 0 0 0 0 0 0 0 0 0 0 0 0 0 0 0 0 0 0 0 0 0 0 0 0 0 0 0 0 0 0 0 0 0 0 0 0 0 0 0
0 0 0 0 0 0 0 0 0 0 0 0 0 0 0 0 0 0 0 0 0 0 0 0 0 0 0 0 0 0 0 0 0 0 0 0 0 0 0 0 0 0 0
0 0 0 0 0 0 0 0 0 0 0 0 0 0 0 0 0 0 0 0 0 0 0 0 0 0 0 0 0 0 0 0 0 0 0 0 0 0 0 0 0 0 0
0 0 0 0 0 0 0 0 0 0 0 0 0 0 0 0 0 0 0 0 0 0 0 0 0 0 0 0 0 0 0 0 0 0 0 0 0 0 0 0 0 0 0
0 0 0 0 0 0 0 0 0 0 0 0 0 0 0 0 0 0 0 0 0 0 0 0 0 0 0 0 0 0 0 0 0 0 0 0 0 0 0 0 0 0 0
0 0 0 0 0 0 0 0 0 0 0 0 0 0 0 0 0 0 0 0 0 0 0 0 0 0 0 0 0 0 0 0 0 0 0 0 0 0 0 0 0 0 0
Wind_Speed
9 10 10 11 12 12 13 14 14 14 14 15 16 16 16 17 18 18 18 19 19 19 19 19 20 20 20 19 19 19 19 19 20 21 21 21 21 21 20 19 17 12 20
13 12 10 12 13 13 13 14 14 13 14 15 15 16 16 17 17 17 18 18 18 19 19 19 19 19 19 18 18 17 16 15 15 17 19 18 19 20 20 19 18 13 19
14 12 11 12 13 13 13 13 13 13 14 15 15 15 16 16 17 17 17 18 18 18 18 18 18 18 18 18 17 16 14 13 11 13 14 8 12 19 19 18 18 18 17
13 12 12 12 12 13 13 13 13 13 14 14 15 15 15 16 16 16 16 17 17 18 18 18 18 17 17 17 16 14 14 13 13 14 9 8 8 16 17 17 17 17 16
11 11 12 12 12 13 12 12 12 13 13 14 14 15 15 15 16 16 16 16 17 17 17 17 17 16 16 15 14 13 12 11 13 11 8 7 6 15 16 16 15 15 14
11 12 11 12 12 13 12 12 13 13 14 14 14 15 15 15 15 15 16 16 16 16 16 16 16 15 15 14 13 12 13 12 10 8 8 7 6 13 15 14 14 13 13
11 11 11 11 11 11 12 12 13 13 13 14 14 14 15 15 15 15 15 15 15 15 15 15 15 14 14 13 11 11 12 9 8 7 7 6 7 13 14 13 13 13 13
10 11 10 10 10 10 11 11 12 13 13 14 14 14 14 14 14 14 14 14 14 14 14 14 13 13 13 12 10 10 11 10 8 8 7 6 10 12 13 13 13 13 13
10 10 8 8 9 9 10 10 11 12 12 13 13 13 12 13 13 12 12 12 13 13 13 12 12 11 11 10 8 8 9 9 5 5 8 5 9 12 13 13 13 13 13
8 9 9 8 8 7 7 10 11 12 12 12 13 12 12 12 11 11 10 11 12 12 11 11 10 9 8 6 4 5 8 5 6 7 4 5 10 11 12 12 12 13 13
6 6 8 8 8 8 8 9 10 11 12 12 10 12 10 6 6 6 9 9 10 10 9 8 7 6 5 3 1 4 5 2 5 5 4 7 9 11 11 12 13 13 14
7 6 6 7 7 8 8 7 5 6 7 6 6 6 4 5 5 8 9 9 8 8 7 5 4 3 3 1 1 2 2 3 4 4 4 8 9 10 11 12 13 13 14
8 6 6 6 7 7 6 5 4 4 4 5 7 5 4 5 5 5 3 4 4 5 3 3 3 1 1 2 2 2 3 3 3 4 4 7 9 10 11 12 12 13 14
9 8 6 6 6 6 6 5 4 4 3 3 5 5 4 3 4 4 3 4 3 2 3 2 1 1 2 2 2 3 3 3 3 3 3 8 9 10 10 11 13 14 15
10 9 8 6 6 6 5 4 4 4 4 4 4 4 5 4 3 3 3 3 3 3 3 2 2 2 1 1 1 2 2 2 3 4 3 7 9 10 11 12 13 14 15
11 10 9 8 7 6 5 4 4 4 4 5 4 5 5 4 4 4 3 3 3 3 3 2 2 1 1 0 0 1 2 2 2 3 4 6 9 10 11 12 13 14 15
10 10 10 9 8 7 6 6 4 4 4 4 5 6 5 5 5 5 4 3 3 3 2 1 2 1 1 0 0 1 1 1 2 3 4 4 5 9 11 13 14 14 15
10 10 11 9 9 8 7 6 4 4 5 4 4 5 6 6 6 5 4 4 4 3 3 2 2 1 1 1 0 1 1 1 2 3 3 4 4 4 8 13 14 14 15
11 11 11 11 10 9 7 6 5 5 5 5 5 5 6 6 6 5 4 4 5 4 3 3 2 2 1 1 1 1 1 2 2 4 4 5 5 4 4 9 12 14 15
11 12 12 12 11 9 7 5 4 4 5 5 5 6 7 7 7 6 4 5 5 4 3 3 3 2 2 1 1 1 2 2 2 3 4 4 4 5 5 5 5 8 14
11 12 14 13 12 10 8 8 7 6 6 5 5 7 8 8 8 7 5 5 5 5 5 5 4 4 3 2 1 1 1 2 3 3 4 4 4 5 5 5 4 4 5
13 13 14 14 14 13 10 9 6 6 5 6 5 7 8 9 9 8 7 6 6 5 6 6 5 3 3 3 3 2 2 1 1 3 4 4 4 4 5 6 5 5 5
14 15 14 15 15 15 12 8 6 5 4 6 8 8 9 10 10 9 10 8 8 7 7 7 7 6 4 4 4 4 3 4 2 2 3 4 4 4 4 4 5 5 6
16 14 14 15 15 16 15 12 13 11 11 11 8 8 9 11 11 11 11 10 9 7 7 8 8 6 6 4 3 3 3 3 4 3 2 2 4 5 5 4 5 4 5
16 14 14 14 15 16 16 16 15 13 11 7 7 10 10 10 12 12 12 10 10 9 9 8 8 8 6 6 5 3 3 2 2 4 4 3 2 2 4 5 4 3 4
14 14 14 15 16 16 17 17 17 16 13 11 12 11 10 8 10 12 12 11 11 9 10 9 9 10 8 7 6 5 4 4 4 4 4 4 4 3 3 4 4 3 3
Wind_Direction
118 120 124 118 111 107 104 103 100 98 97 96 95 92 91 90 88 86 85 84 81 79 78 77 76 75 74 74 74 74 75 76 76 71 67 65 64 63 61 60 59 53 57
121 122 123 117 112 108 106 104 102 101 100 99 97 95 93 91 89 88 87 86 83 81 80 79 78 77 76 75 75 75 74 73 77 79 72 65 64 63 61 59 58 56 56
120 124 122 115 114 111 108 106 104 104 103 100 98 96 95 93 92 91 89 88 85 83 81 80 79 78 77 76 76 73 67 58 59 76 72 65 62 63 61 58 56 54 53
125 131 123 119 117 114 111 109 107 106 104 102 100 99 96 94 93 91 91 90 87 85 83 82 80 79 78 77 75 70 60 50 60 73 66 56 56 62 60 57 54 51 48
123 119 122 123 120 117 114 112 111 109 107 106 102 100 98 95 93 92 90 90 88 87 85 83 81 80 79 76 72 62 48 44 61 67 69 60 51 60 58 55 52 48 44
118 119 127 125 123 121 118 115 115 112 110 108 104 101 99 96 94 93 92 90 88 88 86 84 82 80 78 74 67 52 37 47 65 63 56 47 41 55 55 52 48 44 40
119 123 130 125 124 124 122 119 118 116 112 109 106 104 101 100 98 96 95 93 92 90 88 86 84 80 77 72 62 42 26 38 76 71 62 42 36 48 49 46 42 39 36
122 125 128 122 122 123 121 119 118 118 114 111 109 107 106 104 102 100 99 98 96 94 92 89 86 83 77 70 56 36 22 26 72 78 68 41 33 42 44 42 38 35 34
125 129 135 135 128 121 117 116 116 116 114 112 110 106 103 103 101 99 99 102 100 97 95 93 90 86 80 70 50 19 6 4 61 68 66 37 27 37 39 37 35 35 36
131 139 147 150 144 136 121 115 114 114 114 111 110 108 106 105 103 102 98 101 103 101 99 97 95 92 88 78 41 0 346 348 65 70 59 32 28 34 37 35 34 33 33
146 151 153 156 152 146 138 128 119 116 118 118 118 127 132 130 121 108 102 104 106 106 105 106 110 114 114 112 25 341 336 46 76 77 56 36 35 35 36 36 36 36 36
166 166 158 158 154 149 143 143 141 136 143 144 146 163 168 126 116 110 105 107 112 116 120 129 149 180 197 189 226 313 1 38 69 84 60 46 41 39 38 38 38 38 37
171 171 169 161 154 148 143 157 158 149 164 159 161 174 129 112 121 123 122 123 131 150 159 171 205 219 92 56 34 40 29 37 55 75 63 55 49 44 41 42 42 42 41
177 177 177 164 156 154 154 161 154 148 160 154 157 158 140 141 151 152 157 170 171 179 164 175 161 105 94 81 50 35 36 44 61 80 73 66 56 49 47 48 47 48 47
183 179 177 174 166 161 160 162 160 156 162 157 154 165 155 148 156 151 157 161 169 158 167 171 146 137 111 82 67 56 45 52 74 85 82 74 64 57 54 54 53 53 50
184 181 176 181 176 167 166 169 169 163 162 158 159 174 170 158 159 154 154 165 166 160 159 159 145 147 151 140 111 83 65 57 80 99 104 82 72 65 61 59 56 54 51
183 179 177 182 181 178 177 178 177 169 164 164 166 174 178 169 164 162 164 173 170 151 143 153 150 174 182 187 159 111 95 88 101 100 106 107 88 73 69 65 60 56 52
181 180 178 180 184 186 185 181 178 175 173 174 170 171 179 180 170 169 168 172 168 157 164 171 179 194 200 187 98 82 109 112 102 94 89 94 98 92 77 73 65 60 55
185 181 179 179 184 186 186 184 186 180 178 178 175 175 179 182 181 172 174 174 168 166 175 175 183 188 186 161 138 142 131 119 111 105 98 91 89 96 97 84 74 64 58
185 182 180 180 183 182 181 184 192 191 185 184 182 183 180 183 186 180 178 178 170 170 182 178 184 188 179 163 170 166 154 148 131 122 115 103 95 90 86 88 80 68 62
185 184 184 183 184 182 183 187 193 196 192 194 192 187 186 186 186 185 181 181 177 181 187 184 179 187 197 166 145 135 151 151 137 133 124 115 104 94 86 79 74 72 65
191 190 189 187 185 186 189 189 190 185 195 198 194 194 194 190 187 190 187 185 184 184 187 187 180 181 190 171 169 164 169 165 157 141 128 125 121 107 98 92 82 76 79
196 195 195 193 189 188 185 181 182 188 189 195 199 200 202 197 191 190 193 190 189 187 192 192 186 185 189 191 187 179 181 192 157 146 143 137 134 122 117 109 96 87 88
199 196 197 195 193 189 186 187 187 193 198 199 195 197 198 199 197 195 196 196 193 192 194 194 193 191 182 184 193 204 194 167 153 157 161 146 137 133 130 118 106 95 96
196 195 197 197 198 193 192 193 195 202 204 196 191 194 197 200 200 198 198 198 197 196 197 193 192 193 192 187 178 176 196 206 181 158 172 169 141 137 132 127 119 107 100
193 193 194 199 203 199 197 197 200 204 201 195 196 199 199 198 200 201 199 200 200 198 198 196 194 195 197 195 186 172 168 175 189 180 174 167 164 159 136 127 125 120 109